Friday Harbor, WA

1:33 AM PST on February 13, 2016 (GMT -0800)
Friday Harbor

Weather History for KFHR - February, 2014

Change the Weather History Date:

Friday, February 14, 2014

  Actual Average Record
Temperature  
Mean Temperature 48 °F -  
Max Temperature 54 °F 45 °F 54 °F (2014)
Min Temperature 42 °F 34 °F 27 °F (2005)
Degree Days  
Heating Degree Days 17    
Moisture  
Dew Point 39 °F    
Average Humidity 76    
Maximum Humidity 97    
Minimum Humidity 61    
Precipitation  
Precipitation 0.02 in - - ()
Sea Level Pressure  
Sea Level Pressure 29.73 in    
Wind  
Wind Speed 14 mph (South)    
Max Wind Speed 25 mph    
Max Gust Speed 34 mph    
Visibility 10 miles    
Events Rain    
Averages and records for this station are not official NWS values.
T = Trace of Precipitation, MM = Missing Value Source: NWS Daily Summary

Daily Weather History Graph

Daily Weather History Graph

Search for Another Location

Airport or City:

Trip Planner

Search our weather history database for the weather conditions in past years. The results will help you decide how hot, cold, wet, or windy it might be!

Date:

Astronomy

Feb. 14, 2014 Rise Set
Actual Time 7:20 AM PST 5:32 PM PST
Civil Twilight 6:48 AM PST 6:04 PM PST
Nautical Twilight 6:11 AM PST 6:41 PM PST
Astronomical Twilight 5:35 AM PST 7:17 PM PST
Moon 5:46 PM PST (2/14) 6:47 AM PST (2/14)
Length of Visible Light 11h 16m
Length of Day
10h 11m
Full, 100% of the Moon is Illuminated
Feb 14
Full
Feb 14
Full
Feb 22
Last Quarter
Mar 1
New
Mar 8
First Quarter

Hourly Weather History & Observations

Time (PST) Temp. Windchill Dew Point Humidity Pressure Visibility Wind Dir Wind Speed Gust Speed Precip Events Conditions
12:53 AM 46.9 °F - 35.1 °F 63% 29.70 in 10.0 mi East 15.0 mph - 0.00 in Rain Light Rain
1:53 AM 46.9 °F - 34.0 °F 61% 29.63 in 10.0 mi ESE 21.9 mph 28.8 mph 0.00 in   Overcast
2:53 AM 45.0 °F 36.4 °F 37.0 °F 74% 29.56 in 10.0 mi ESE 23.0 mph 33.4 mph 0.00 in Rain Light Rain
3:44 AM 43.0 °F 33.3 °F 37.9 °F 82% 29.56 in 9.0 mi ESE 25.3 mph 34.5 mph 0.00 in Rain Light Rain
3:53 AM 43.0 °F 34.2 °F 37.9 °F 82% 29.56 in 9.0 mi ESE 20.7 mph 32.2 mph 0.00 in Rain Light Rain
4:24 AM 43.0 °F 34.8 °F 37.9 °F 82% 29.54 in 10.0 mi SE 18.4 mph 32.2 mph 0.00 in   Mostly Cloudy
4:53 AM 43.0 °F 35.7 °F 39.0 °F 86% 29.55 in 10.0 mi SE 15.0 mph 25.3 mph 0.00 in Rain Light Rain
5:53 AM 43.0 °F 35.4 °F 39.9 °F 89% 29.56 in 8.0 mi SSE 16.1 mph 23.0 mph 0.02 in Rain Light Rain
6:53 AM 43.0 °F 38.8 °F 41.0 °F 93% 29.58 in 10.0 mi SSE 6.9 mph - 0.00 in   Overcast
7:10 AM 42.1 °F 39.2 °F 41.0 °F 96% 29.58 in 10.0 mi Variable 4.6 mph - N/A   Mostly Cloudy
7:53 AM 43.0 °F 39.5 °F 42.1 °F 97% 29.62 in 10.0 mi SSE 5.8 mph - N/A   Mostly Cloudy
8:53 AM 46.9 °F - 41.0 °F 80% 29.62 in 10.0 mi SSW 11.5 mph - 0.00 in   Partly Cloudy
9:53 AM 50.0 °F - 41.0 °F 71% 29.67 in 10.0 mi South 9.2 mph 17.3 mph N/A   Mostly Cloudy
10:53 AM 51.1 °F - 42.1 °F 71% 29.70 in 10.0 mi SSW 10.4 mph - N/A   Mostly Cloudy
11:53 AM 51.1 °F - 41.0 °F 68% 29.72 in 10.0 mi SSW 11.5 mph - N/A   Clear
12:53 PM 53.1 °F - 39.9 °F 61% 29.75 in 10.0 mi SW 13.8 mph 20.7 mph N/A   Clear
1:53 PM 54.0 °F - 41.0 °F 62% 29.78 in 10.0 mi WSW 11.5 mph 19.6 mph N/A   Clear
2:53 PM 51.1 °F - 41.0 °F 68% 29.81 in 10.0 mi SW 9.2 mph 28.8 mph N/A   Clear
3:53 PM 48.9 °F - 39.9 °F 71% 29.84 in 10.0 mi WSW 9.2 mph 28.8 mph N/A   Clear
4:53 PM 46.9 °F - 37.0 °F 68% 29.87 in 10.0 mi SW 10.4 mph 20.7 mph N/A   Clear
5:53 PM 46.0 °F 42.5 °F 36.0 °F 68% 29.89 in 10.0 mi Variable 6.9 mph - N/A   Clear
6:53 PM 45.0 °F 40.6 °F 36.0 °F 71% 29.91 in 10.0 mi WSW 8.1 mph - N/A   Clear
7:53 PM 44.1 °F 42.5 °F 36.0 °F 73% 29.91 in 10.0 mi Variable 3.5 mph - N/A   Clear
8:53 PM 45.0 °F 43.5 °F 36.0 °F 71% 29.94 in 10.0 mi SW 3.5 mph - N/A   Mostly Cloudy
9:53 PM 44.1 °F - 37.0 °F 76% 29.94 in 10.0 mi Calm Calm - N/A   Overcast
10:53 PM 45.0 °F - 37.9 °F 76% 29.95 in 10.0 mi Calm Calm - N/A   Overcast
11:53 PM 44.1 °F - 39.0 °F 82% 29.94 in 10.0 mi Calm Calm - N/A   Overcast